Skip Page Navigation
NASA JPL Caltech
NASA Logo - Jet Propulsion Laboratory + View the NASA Portal
+ Center for Near-Earth Object Studies
JPL Home Earth Solar System Stars & Galaxies Technology
JPL Solar System Dynamics
BODIES ORBITS EPHEMERIDES TOOLS PHYSICAL DATA DISCOVERY FAQ SITE MAP

Significant website upgrade scheduled for September 27. More details available here.

JPL Small-Body Database Browser
Search: [ help ]  
21112 (1992 RY3)
Classification: Main-belt Asteroid          SPK-ID: 2021112
Ephemeris | Orbit Diagram | Orbital Elements | Mission Design | Physical Parameters | Discovery Circumstances ]

[ show orbit diagram ]
Orbital Elements at Epoch 2459396.5 (2021-Jul-01.0) TDB
Reference: JPL 30 (heliocentric ecliptic J2000)
 Element Value Uncertainty (1-sigma)   Units 
e .1717310587719707 3.0491e-08  
a 2.282521693240628 8.6407e-09 au
q 1.890541826190424 6.959e-08 au
i 5.869033092548805 3.6035e-06 deg
node 332.6813002041424 3.7569e-05 deg
peri 332.76733966 3.9295e-05 deg
M 156.3658554003605 1.2297e-05 deg
tp 2458849.408179443419
(2019-Dec-31.90817944)
4.2248e-05 TDB
period 1259.565618696542
3.45
7.1523e-06
1.958e-08
d
yr
n .2858128188450754 1.623e-09 deg/d
Q 2.674501560290833 1.0125e-08 au
  Orbit Determination Parameters
   # obs. used (total)      1152  
   data-arc span      10390 days (28.45 yr)  
   first obs. used      1992-09-02  
   last obs. used      2021-02-12  
   planetary ephem.      DE441  
   SB-pert. ephem.      SB441-N16  
   condition code      0  
   norm. resid. RMS      .52621  
   source      ORB  
   producer      Otto Matic  
   solution date      2021-Aug-25 14:57:46  

Additional Information
 Earth MOID = .877403 au 
 Jupiter MOID = 2.57347 au 
 T_jup = 3.578 
[ show covariance matrix ]

Ephemeris | Orbit Diagram | Orbital Elements | Mission Design | Physical Parameters | Discovery Circumstances ]

Physical Parameter Table
Parameter Symbol Value Units Sigma Reference Notes
absolute magnitude H 15.63   n/a MPCxxxxx  

21112 (1992 RY3)          Discovered 1992-Sep-02 by Elst, E. W. at La Silla
Reference: 20010208/Numbers.arcLast Updated: 2004-04-19

Alternate Designations
 1992 RY3 = 1999 TO111 
Ephemeris | Orbit Diagram | Orbital Elements | Mission Design | Physical Parameters | Discovery Circumstances ]
ABOUT SSD CREDITS/AWARDS PRIVACY/COPYRIGHT GLOSSARY LINKS
FirstGov 2021-Sep-25 20:15 UT
(server date/time)  
NASA Home Page
Site Manager:   Ryan S. Park
Webmaster  Alan B. Chamberlin